Timestamp[UTC];2m Lufttemperatur [degC] (tas);Stations-Luftdruck [Pa] (ps);relative Luftfeuchtigkeit [%] (hurs);spezifische Luftfeuchtigkeit [kg/kg] (huss);Niederschlagsmenge [mm] (pr);Windgeschwindigkeit in 2m [m/s] (sfcWind);Windrichtung [deg];maximale Windgeschwindigkeit [m/s] (wsgsmax);u-Windkomponente [m/s] (uas);v-Windkomponente [m/s] (vas);Sonneneinstrahlung [W/m2];Blitzrate [n];Blitzentfernung [km];Bodenfeuchte in 5cm Tiefe [vol%];Bodenfeuchte in 15cm Tiefe [vol%];Bodenfeuchte in 30cm Tiefe [vol%];Bodenfeuchte in 60cm Tiefe [vol%];Bodentemperatur in 5cm Tiefe [degC];Bodentemperatur in 15cm Tiefe [degC];Bodentemperatur in 30cm Tiefe [degC];Bodentemperatur in 60cm Tiefe [degC];Matrixpotential in 30cm Tiefe [kPa];Bodenfeuchte aus CRNS [vol%] (mrso);Neutronen Anzahl [N/h]
2023-07-01 00:00:00;17,0;100477;75;0,0091;0,0;0,4;187;1,3;-0,06;-0,44;0;0;nan;20,1;20,9;23,1;26,5;20,4;21,1;21,0;19,8;-17,4;22,9;1451
2023-07-01 01:00:00;17,3;100400;75;0,0092;0,0;0,8;188;2,2;-0,1;-0,74;0;0;nan;20,1;20,9;23,1;26,5;20,2;20,9;21,0;19,8;-17,4;22,5;1458
2023-07-01 02:00:00;17,6;100340;72;0,0091;0,0;1,5;189;3,7;-0,24;-1,45;0;0;nan;20,1;20,9;23,1;26,5;19,9;20,6;20,8;19,8;-17,4;22,3;1462
2023-07-01 03:00:00;17,8;100282;71;0,009;0,0;1,7;187;4,3;-0,22;-1,72;2;0;nan;20,0;20,9;23,1;26,5;19,7;20,4;20,7;19,8;-17,4;22,3;1462
2023-07-01 04:00:00;18,0;100230;70;0,009;0,0;2,0;190;5,6;-0,35;-1,94;21;0;nan;20,0;20,8;23,0;26,5;19,4;20,2;20,6;19,8;-17,4;22,9;1452
2023-07-01 05:00:00;18,2;100177;70;0,0091;0,0;2,1;193;5,8;-0,46;-2,06;72;0;nan;20,0;20,8;23,0;26,5;19,3;20,1;20,5;19,8;-17,4;23,1;1447
2023-07-01 06:00:00;17,4;100158;76;0,0095;0,0;1,9;199;6,7;-0,6;-1,78;82;0;nan;20,0;20,8;23,0;26,5;19,2;19,9;20,4;19,8;-17,4;23,4;1443
2023-07-01 07:00:00;16,2;100145;87;0,0099;0,0;2,1;196;5,4;-0,6;-2,04;110;0;nan;20,0;20,8;23,0;26,5;19,2;19,8;20,3;19,8;-17,4;23,4;1442
2023-07-01 08:00:00;15,9;100128;92;0,0103;0,0;2,1;194;5,9;-0,52;-2,05;126;0;nan;20,0;20,8;23,0;26,5;19,2;19,7;20,2;19,8;-17,4;24,1;1431
2023-07-01 09:00:00;15,8;100112;95;0,0106;0,02;2,0;190;4,9;-0,36;-1,99;99;0;nan;19,9;20,8;23,0;26,5;19,2;19,7;20,1;19,8;-17,4;24,8;1420
2023-07-01 10:00:00;16,3;100090;96;0,0111;0,0;2,0;191;4,5;-0,38;-1,93;134;0;nan;19,9;20,8;23,0;26,5;19,2;19,6;20,1;19,7;-17,4;25,2;1414
2023-07-01 11:00:00;16,9;100063;97;0,0117;0,02;2,0;192;4,9;-0,4;-1,93;158;0;nan;19,9;20,8;23,0;26,5;19,3;19,6;20,0;19,7;-17,4;25,6;1407
2023-07-01 12:00:00;17,2;100060;97;0,0119;0,02;1,7;189;4,2;-0,28;-1,71;128;0;nan;19,9;20,8;23,0;26,5;19,4;19,6;19,9;19,7;-17,4;25,5;1410
2023-07-01 13:00:00;18,2;100037;96;0,0125;0,0;1,9;191;5,2;-0,36;-1,85;237;0;nan;19,9;20,7;23,0;26,5;19,6;19,6;19,9;19,7;-17,4;25,8;1406
2023-07-01 14:00:00;19,4;99987;94;0,0132;0,02;2,0;189;5,1;-0,31;-1,97;238;0;nan;19,9;20,7;22,9;26,5;19,9;19,7;19,9;19,7;-17,4;25,8;1405
2023-07-01 15:00:00;17,5;100028;100;0,0125;0,0;1,5;284;4,6;-1,4;0,36;120;0;nan;20,5;20,7;22,9;26,5;20,1;19,8;19,9;19,6;-17,5;25,8;1405
2023-07-01 16:00:00;17,0;100073;100;0,0121;0,02;1,2;282;4,2;-1,13;0,23;211;0;nan;29,2;21,2;22,9;26,5;20,2;19,9;19,8;19,6;-17,5;26,3;1398
2023-07-01 17:00:00;17,1;100105;100;0,0122;0,06;0,9;280;3,2;-0,86;0,16;91;0;nan;32,1;25,8;22,9;26,4;20,3;20,0;19,9;19,6;-17,5;26,5;1396
2023-07-01 18:00:00;16,5;100177;100;0,0117;0,08;0,7;288;2,3;-0,7;0,22;22;0;nan;31,3;27,8;23,1;26,4;20,2;20,0;19,9;19,5;-17,1;26,5;1395
2023-07-01 19:00:00;16,1;100217;100;0,0114;0,04;0,4;227;1,3;-0,26;-0,24;11;0;nan;30,6;28,3;23,8;26,4;20,0;20,0;19,9;19,5;-16,0;26,8;1391
2023-07-01 20:00:00;15,6;100267;99;0,011;0,06;0,4;235;1,3;-0,34;-0,24;0;0;nan;29,9;28,2;24,7;26,4;19,8;20,0;19,9;19,5;-15,1;27,3;1384
2023-07-01 21:00:00;15,8;100305;97;0,0108;0,08;0,7;228;3,0;-0,5;-0,44;0;0;nan;29,4;28,1;25,6;26,4;19,5;19,9;19,9;19,5;-14,8;27,7;1378
2023-07-01 22:00:00;16,2;100330;95;0,0109;0,06;0,8;228;2,6;-0,62;-0,56;0;0;nan;29,0;28,0;26,2;26,4;19,2;19,7;19,9;19,5;-14,6;27,4;1383
2023-07-01 23:00:00;16,2;100337;96;0,011;0,04;0,8;216;2,2;-0,48;-0,65;0;0;nan;28,7;27,9;26,6;26,4;19,0;19,6;19,8;19,5;-14,5;27,4;1383
2023-07-02 00:00:00;16,1;100313;96;0,0109;0,06;0,8;207;2,8;-0,37;-0,73;0;0;nan;28,4;27,8;26,8;26,4;18,8;19,4;19,8;19,5;-14,4;27,6;1380
2023-07-02 01:00:00;16,1;100283;96;0,0109;0,02;1,1;200;3,1;-0,36;-1,01;0;0;nan;28,2;27,7;27,0;26,4;18,6;19,3;19,7;19,4;-14,4;27,7;1378
2023-07-02 02:00:00;16,1;100307;94;0,0107;0,04;1,1;205;3,0;-0,46;-0,98;0;0;nan;28,0;27,6;27,1;26,4;18,4;19,1;19,6;19,4;-14,3;28,0;1374
2023-07-02 03:00:00;15,7;100350;90;0,01;0,02;0,9;214;3,1;-0,48;-0,72;4;0;nan;27,8;27,5;27,1;26,4;18,3;19,0;19,6;19,4;-14,3;28,2;1371
2023-07-02 04:00:00;15,0;100413;86;0,0092;0,08;0,6;194;2,1;-0,15;-0,6;36;0;nan;27,6;27,4;27,2;26,4;18,1;18,9;19,5;19,4;-14,2;28,0;1374
2023-07-02 05:00:00;15,8;100440;87;0,0097;0,04;0,8;216;2,5;-0,46;-0,64;139;0;nan;27,4;27,3;27,2;26,4;17,9;18,7;19,4;19,4;-14,2;28,0;1374
2023-07-02 06:00:00;17,0;100483;82;0,0099;0,04;1,2;244;4,0;-1,08;-0,53;232;0;nan;27,3;27,2;27,2;26,4;18,0;18,6;19,3;19,4;-14,2;28,1;1373
2023-07-02 07:00:00;17,1;100554;75;0,0091;0,02;1,5;275;4,7;-1,38;0,11;271;0;nan;27,2;27,1;27,2;26,4;18,2;18,6;19,2;19,3;-14,1;28,1;1373
2023-07-02 08:00:00;17,4;100587;71;0,0088;0,02;1,6;289;5,9;-1,54;0,53;357;0;nan;27,0;27,1;27,2;26,4;18,5;18,6;19,2;19,3;-14,1;28,0;1375
2023-07-02 09:00:00;18,4;100610;64;0,0084;0,0;1,9;254;7,4;-1,76;-0,5;504;0;nan;26,9;27,0;27,2;26,4;18,9;18,7;19,1;19,3;-14,1;27,7;1379
2023-07-02 10:00:00;19,0;100627;59;0,008;0,02;2,3;281;7,7;-2,21;0,42;363;0;nan;26,7;26,9;27,2;26,4;19,5;18,9;19,1;19,3;-14,1;27,9;1375
2023-07-02 11:00:00;19,4;100652;57;0,008;0,06;2,4;290;7,4;-2,24;0,81;314;0;nan;26,6;26,8;27,2;26,4;20,1;19,2;19,1;19,2;-14,1;27,5;1381
2023-07-02 12:00:00;19,9;100677;58;0,0083;0,04;2,0;280;7,4;-1,99;0,35;311;0;nan;26,4;26,7;27,2;26,4;20,7;19,5;19,2;19,2;-14,1;27,6;1380
2023-07-02 13:00:00;20,3;100707;59;0,0087;0,02;1,8;254;6,0;-1,66;-0,49;294;0;nan;26,2;26,6;27,2;26,4;21,3;19,8;19,2;19,2;-14,0;27,5;1381
2023-07-02 14:00:00;20,2;100710;57;0,0083;0,04;2,0;274;6,3;-1,94;0,13;195;0;nan;26,1;26,5;27,1;26,4;21,7;20,1;19,3;19,2;-14,1;27,6;1380
2023-07-02 15:00:00;20,6;100698;56;0,0083;0,02;2,0;285;5,6;-1,75;0,46;212;0;nan;25,9;26,4;27,1;26,4;21,9;20,4;19,4;19,2;-14,1;27,6;1380
2023-07-02 16:00:00;20,8;100682;52;0,0079;0,02;1,8;281;5,7;-1,67;0,31;144;0;nan;25,7;26,3;27,1;26,4;21,9;20,6;19,6;19,1;-14,0;27,3;1384
2023-07-02 17:00:00;19,8;100677;55;0,0079;0,02;1,6;302;5,3;-1,39;0,86;84;0;nan;25,6;26,2;27,0;26,4;21,9;20,8;19,7;19,1;-14,1;27,2;1386
2023-07-02 18:00:00;18,4;100655;58;0,0076;0,02;0,9;303;2,7;-0,77;0,5;26;0;nan;25,4;26,1;27,0;26,4;21,6;20,9;19,8;19,1;-14,1;27,2;1385
2023-07-02 19:00:00;17,6;100640;61;0,0076;0,0;0,5;286;1,4;-0,47;0,13;13;0;nan;25,3;26,0;27,0;26,4;21,0;20,8;19,9;19,1;-14,1;27,0;1388
2023-07-02 20:00:00;16,4;100663;67;0,0077;0,02;0,3;215;0,6;-0,16;-0,23;0;0;nan;25,2;25,9;26,9;26,4;20,4;20,5;20,0;19,1;-14,1;26,9;1389
2023-07-02 21:00:00;15,2;100688;74;0,0078;0,02;0,2;222;0,6;-0,15;-0,16;0;0;nan;25,1;25,8;26,9;26,5;19,9;20,3;20,0;19,1;-14,1;26,9;1390
2023-07-02 22:00:00;14,4;100680;76;0,0077;0,0;0,3;215;1,0;-0,16;-0,24;0;0;nan;25,0;25,8;26,8;26,5;19,4;20,1;19,9;19,1;-14,1;26,9;1390
2023-07-02 23:00:00;14,3;100660;80;0,008;0,0;0,3;210;0,8;-0,16;-0,28;0;0;nan;24,9;25,7;26,8;26,5;19,0;19,8;19,9;19,1;-14,1;27,2;1385
2023-07-03 00:00:00;14,3;100635;77;0,0078;0,02;0,7;214;2,5;-0,37;-0,54;0;0;nan;24,8;25,6;26,7;26,5;18,6;19,5;19,8;19,1;-14,1;27,5;1382
2023-07-03 01:00:00;14,0;100622;74;0,0074;0,0;0,8;215;3,2;-0,47;-0,67;0;0;nan;24,7;25,5;26,7;26,5;18,1;19,3;19,7;19,1;-14,0;27,8;1378
2023-07-03 02:00:00;13,9;100615;76;0,0074;0,0;1,0;206;3,1;-0,42;-0,86;0;0;nan;24,7;25,5;26,6;26,5;17,8;19,0;19,6;19,1;-14,0;27,5;1381
2023-07-03 03:00:00;14,1;100580;76;0,0076;0,02;1,1;210;4,4;-0,53;-0,93;2;0;nan;24,6;25,4;26,6;26,5;17,5;18,7;19,5;19,1;-14,0;27,5;1381
2023-07-03 04:00:00;13,8;100587;80;0,0078;0,0;1,3;197;3,6;-0,36;-1,21;26;0;nan;24,5;25,4;26,5;26,5;17,2;18,4;19,3;19,1;-14,0;27,7;1378
2023-07-03 05:00:00;14,8;100606;82;0,0085;0,0;1,2;217;3,6;-0,71;-0,95;108;0;nan;24,5;25,3;26,5;26,5;17,0;18,2;19,2;19,1;-14,0;27,7;1379
2023-07-03 06:00:00;15,7;100614;81;0,0089;0,0;1,6;231;5,7;-1,23;-1,0;135;0;nan;24,4;25,3;26,5;26,5;17,0;18,0;19,1;19,1;-14,0;27,3;1384
2023-07-03 07:00:00;15,9;100647;80;0,0089;0,02;1,9;228;5,6;-1,4;-1,27;174;0;nan;24,4;25,2;26,4;26,5;17,2;17,9;18,9;19,1;-14,0;27,2;1386
2023-07-03 08:00:00;17,3;100673;75;0,0092;0,0;1,2;240;5,2;-1,04;-0,61;228;0;nan;24,3;25,2;26,4;26,5;17,6;17,9;18,8;19,1;-14,0;26,9;1390
2023-07-03 09:00:00;16,9;100710;75;0,009;0,0;1,2;225;4,4;-0,86;-0,87;152;0;nan;24,3;25,1;26,4;26,5;18,0;18,0;18,7;19,0;-14,0;26,7;1392
2023-07-03 10:00:00;13,9;100726;93;0,0091;0,0;1,2;254;4,4;-0,99;-0,28;178;0;nan;24,8;25,1;26,3;26,5;18,2;18,2;18,7;19,0;-14,0;26,6;1394
2023-07-03 11:00:00;13,6;100700;93;0,009;0,04;1,5;237;4,9;-1,22;-0,79;234;0;nan;27,5;25,7;26,3;26,5;18,3;18,2;18,7;19,0;-14,0;26,9;1390
2023-07-03 12:00:00;18,5;100710;64;0,0084;0,0;1,7;220;5,8;-1,1;-1,3;262;0;nan;27,4;26,3;26,5;26,5;18,5;18,3;18,7;19,0;-14,0;27,3;1384
2023-07-03 13:00:00;19,0;100707;60;0,0082;0,0;1,9;207;6,5;-0,8;-1,58;249;0;nan;27,2;26,5;26,7;26,5;18,8;18,5;18,7;18,9;-13,9;27,3;1384
2023-07-03 14:00:00;19,5;100697;57;0,008;0,0;1,8;232;5,7;-1,37;-1,08;230;0;nan;27,0;26,6;26,8;26,5;19,0;18,6;18,7;18,9;-13,8;27,0;1388
2023-07-03 15:00:00;19,3;100697;57;0,0078;0,0;1,5;235;4,5;-1,22;-0,84;149;0;nan;26,8;26,6;26,9;26,5;19,2;18,7;18,7;18,9;-13,8;27,3;1383
2023-07-03 16:00:00;19,1;100687;58;0,0079;0,0;1,2;238;4,4;-1,03;-0,65;112;0;nan;26,6;26,5;27,0;26,5;19,1;18,8;18,7;18,8;-13,8;27,6;1380
2023-07-03 17:00:00;18,8;100650;60;0,008;0,0;0,6;255;2,6;-0,61;-0,17;56;0;nan;26,4;26,5;27,0;26,5;19,0;18,9;18,8;18,8;-13,8;27,6;1380
2023-07-03 18:00:00;18,2;100612;63;0,0082;0,0;0,4;255;1,8;-0,39;-0,11;37;0;nan;26,3;26,5;27,0;26,5;18,9;18,9;18,8;18,8;-13,8;27,9;1376
2023-07-03 19:00:00;18,4;100600;61;0,008;0,0;0,9;215;3,5;-0,53;-0,76;10;0;nan;26,2;26,4;27,0;26,5;18,7;18,8;18,8;18,8;-13,7;28,2;1372
2023-07-03 20:00:00;18,5;100600;57;0,0075;0,0;1,7;211;6,3;-0,86;-1,45;0;0;nan;26,1;26,4;27,0;26,5;18,4;18,7;18,8;18,8;-13,7;28,3;1371
2023-07-03 21:00:00;17,6;100630;59;0,0073;0,0;1,6;235;5,3;-1,28;-0,9;0;0;nan;25,9;26,3;27,0;26,5;18,0;18,6;18,8;18,7;-13,7;28,0;1374
2023-07-03 22:00:00;17,2;100650;62;0,0075;0,0;1,8;223;6,3;-1,22;-1,3;0;0;nan;25,8;26,2;27,0;26,5;17,6;18,4;18,8;18,7;-13,7;28,2;1372
2023-07-03 23:00:00;15,9;100720;72;0,008;0,0;2,1;280;6,1;-1,8;0,3;0;0;nan;25,7;26,2;27,0;26,5;17,3;18,2;18,7;18,7;-13,7;28,0;1375
2023-07-04 00:00:00;13,6;100765;85;0,0082;0,0;0,7;257;2,6;-0,59;-0,13;0;0;nan;25,7;26,1;27,0;26,5;17,0;18,0;18,6;18,7;-13,7;27,7;1379
2023-07-04 01:00:00;13,3;100771;87;0,0082;0,0;1,1;288;2,7;-0,79;0,26;0;0;nan;25,6;26,1;27,0;26,5;16,8;17,8;18,5;18,7;-13,7;27,4;1382
2023-07-04 02:00:00;12,4;100775;90;0,0081;0,0;0,4;230;1,3;-0,29;-0,24;0;0;nan;25,6;26,0;26,9;26,5;16,6;17,6;18,4;18,7;-13,7;27,6;1380
2023-07-04 03:00:00;12,5;100753;90;0,0081;0,0;0,8;236;2,2;-0,58;-0,39;2;0;nan;25,5;26,0;26,9;26,5;16,4;17,4;18,3;18,7;-13,6;27,7;1379
2023-07-04 04:00:00;12,9;100787;93;0,0086;0,02;0,8;269;2,5;-0,81;-0,02;7;0;nan;25,6;26,0;26,9;26,5;16,2;17,3;18,2;18,6;-13,6;27,5;1381
2023-07-04 05:00:00;13,1;100812;95;0,0089;0,0;0,5;236;1,6;-0,39;-0,26;66;0;nan;25,8;26,1;26,9;26,6;16,1;17,1;18,1;18,6;-13,6;27,5;1381
2023-07-04 06:00:00;15,0;100833;94;0,0099;0,0;1,3;221;4,5;-0,84;-0,98;216;0;nan;25,9;26,1;26,9;26,6;16,2;17,0;18,0;18,6;-13,6;27,8;1378
2023-07-04 07:00:00;16,6;100858;85;0,0099;0,0;1,6;222;5,4;-1,08;-1,2;294;0;nan;25,9;26,2;26,9;26,6;16,5;17,0;17,9;18,6;-13,6;27,8;1378
2023-07-04 08:00:00;18,0;100880;74;0,0094;0,0;1,9;213;5,8;-1,02;-1,59;425;0;nan;25,8;26,2;26,9;26,6;17,0;17,0;17,9;18,5;-13,6;27,8;1376
2023-07-04 09:00:00;18,8;100903;67;0,0089;0,02;2,0;211;6,0;-0,99;-1,67;515;0;nan;25,8;26,1;26,9;26,6;17,8;17,2;17,8;18,5;-13,6;28,2;1372
2023-07-04 10:00:00;19,5;100910;62;0,0087;0,0;2,1;214;5,8;-1,17;-1,7;577;0;nan;25,7;26,1;27,0;26,6;18,6;17,6;17,8;18,5;-13,5;28,3;1370
2023-07-04 11:00:00;20,1;100912;60;0,0086;0,0;2,2;225;6,5;-1,5;-1,53;554;0;nan;25,6;26,1;26,9;26,6;19,5;18,0;17,9;18,4;-13,5;28,2;1372
2023-07-04 12:00:00;20,3;100923;58;0,0085;0,0;1,7;227;6,8;-1,24;-1,15;400;0;nan;25,5;26,0;26,9;26,6;20,2;18,5;18,0;18,4;-13,5;27,9;1376
2023-07-04 13:00:00;21,1;100927;56;0,0087;0,0;1,8;224;6,5;-1,21;-1,27;464;0;nan;25,4;26,0;26,9;26,6;20,7;18,9;18,1;18,4;-13,5;28,0;1374
2023-07-04 14:00:00;21,2;100922;56;0,0086;0,0;1,3;235;4,4;-1,02;-0,72;326;0;nan;25,2;25,9;26,9;26,6;21,2;19,3;18,3;18,4;-13,5;28,3;1370
2023-07-04 15:00:00;21,4;100883;55;0,0086;0,0;1,2;244;4,3;-1,06;-0,51;261;0;nan;25,1;25,8;26,9;26,6;21,4;19,7;18,4;18,3;-13,6;28,1;1374
2023-07-04 16:00:00;21,1;100833;56;0,0087;0,0;0,7;259;2,3;-0,63;-0,12;162;0;nan;25,0;25,8;26,8;26,6;21,4;19,9;18,6;18,3;-13,5;28,0;1374
2023-07-04 17:00:00;21,0;100783;58;0,0089;0,0;0,3;237;1,1;-0,26;-0,17;95;0;nan;24,9;25,7;26,8;26,6;21,3;20,1;18,8;18,3;-13,6;27,5;1381
2023-07-04 18:00:00;19,8;100750;69;0,0099;0,0;0,2;205;0,4;-0,08;-0,16;29;0;nan;24,8;25,6;26,8;26,6;21,0;20,1;18,9;18,3;-13,6;27,3;1384
2023-07-04 19:00:00;18,7;100727;75;0,01;0,02;0,3;177;0,8;0,01;-0,22;4;0;nan;24,7;25,6;26,7;26,6;20,7;20,1;19,0;18,3;-13,6;27,2;1386
2023-07-04 20:00:00;16,8;100715;86;0,0102;0,0;0,4;250;0,9;-0,18;-0,06;0;0;nan;24,6;25,5;26,7;26,6;20,4;20,0;19,1;18,3;-13,6;27,3;1384
2023-07-04 21:00:00;16,0;100623;92;0,0104;0,0;0,4;53;1,4;0,27;0,2;0;0;nan;24,6;25,5;26,7;26,6;20,0;19,9;19,1;18,3;-13,6;27,3;1383
2023-07-04 22:00:00;16,0;100530;90;0,0101;0,0;1,0;92;2,7;0,98;-0,03;0;0;nan;24,6;25,4;26,6;26,6;19,6;19,7;19,2;18,3;-13,6;27,2;1385
2023-07-04 23:00:00;16,4;100352;83;0,0096;0,0;1,1;102;3,2;1,08;-0,23;0;0;nan;24,5;25,4;26,6;26,6;19,3;19,6;19,2;18,4;-13,6;27,1;1387
2023-07-05 00:00:00;16,9;100270;83;0,01;0,02;1,7;170;5,0;0,28;-1,64;0;0;nan;24,5;25,4;26,6;26,6;18,9;19,4;19,1;18,4;-13,6;27,0;1388
2023-07-05 01:00:00;16,2;100177;91;0,0104;0,0;1,5;163;3,8;0,43;-1,41;0;0;nan;24,5;25,3;26,5;26,6;18,6;19,2;19,1;18,4;-13,6;27,2;1385
2023-07-05 02:00:00;16,6;100043;92;0,0109;0,0;2,1;163;5,2;0,6;-1,96;0;0;nan;24,5;25,3;26,5;26,6;18,4;19,0;19,0;18,4;-13,6;27,2;1386
2023-07-05 03:00:00;16,9;100030;91;0,011;0,0;2,4;186;6,7;-0,27;-2,37;1;0;nan;24,6;25,3;26,5;26,6;18,2;18,8;19,0;18,4;-13,6;27,4;1382
2023-07-05 04:00:00;15,6;100120;84;0,0092;0,0;2,2;219;6,4;-1,4;-1,71;13;0;nan;24,7;25,3;26,5;26,6;18,0;18,6;18,9;18,4;-13,6;27,4;1383
2023-07-05 05:00:00;14,9;100167;81;0,0086;0,0;2,2;192;6,8;-0,46;-2,18;85;0;nan;24,7;25,3;26,5;26,6;17,7;18,5;18,8;18,4;-13,5;27,4;1382
2023-07-05 06:00:00;15,4;100180;76;0,0083;0,0;3,3;192;10,8;-0,69;-3,2;183;0;nan;24,6;25,3;26,4;26,6;17,5;18,3;18,7;18,4;-13,5;27,6;1380
2023-07-05 07:00:00;15,1;100220;75;0,008;0,0;3,4;189;10,1;-0,51;-3,38;102;0;nan;24,6;25,3;26,4;26,6;17,4;18,1;18,7;18,4;-13,5;27,8;1377
2023-07-05 08:00:00;15,4;100282;75;0,0082;0,0;3,3;194;10,3;-0,78;-3,23;285;0;nan;24,6;25,3;26,4;26,6;17,3;18,0;18,6;18,5;-13,5;27,7;1378
2023-07-05 09:00:00;15,4;100345;74;0,0081;0,0;3,4;190;9,7;-0,59;-3,38;214;0;nan;24,5;25,2;26,4;26,6;17,4;17,9;18,5;18,4;-13,5;27,4;1382
2023-07-05 10:00:00;17,1;100437;69;0,0084;0,0;2,7;201;8,3;-1,0;-2,56;304;0;nan;24,5;25,2;26,4;26,6;17,6;17,9;18,4;18,4;-13,5;27,3;1383
2023-07-05 11:00:00;17,5;100510;64;0,0079;0,0;2,7;214;9,3;-1,54;-2,24;213;0;nan;24,4;25,2;26,4;26,6;17,8;17,9;18,4;18,4;-13,5;27,0;1388
2023-07-05 12:00:00;18,7;100580;59;0,0079;0,0;2,8;234;9,1;-2,27;-1,62;392;0;nan;24,4;25,1;26,3;26,6;18,0;17,9;18,3;18,4;-13,5;27,0;1388
2023-07-05 13:00:00;19,4;100640;54;0,0075;0,0;2,5;246;7,9;-2,17;-0,97;381;0;nan;24,3;25,1;26,3;26,6;18,3;18,0;18,3;18,4;-13,5;27,1;1387
2023-07-05 14:00:00;20,1;100670;53;0,0077;0,0;2,4;247;10,6;-2,16;-0,93;481;0;nan;24,2;25,0;26,3;26,6;18,7;18,2;18,3;18,4;-13,5;27,1;1386
2023-07-05 15:00:00;19,8;100745;58;0,0083;0,0;2,6;218;7,3;-1,56;-2,02;272;0;nan;24,2;25,0;26,3;26,6;19,2;18,4;18,3;18,4;-13,5;27,2;1386
2023-07-05 16:00:00;19,5;100780;63;0,0088;0,0;1,7;221;3,6;-1,13;-1,28;198;0;nan;24,1;25,0;26,2;26,6;19,4;18,6;18,3;18,3;-13,5;27,1;1386
2023-07-05 17:00:00;19,9;100810;57;0,0082;0,0;2,2;300;8,6;-1,94;1,13;244;7;15;24,0;24,9;26,2;26,6;19,5;18,8;18,4;18,3;-13,5;27,6;1379
2023-07-05 18:00:00;16,0;100920;79;0,0089;0,03;2,0;214;8,8;-1,11;-1,67;66;8;13;24,0;24,9;26,2;26,6;19,2;18,9;18,4;18,3;-13,5;28,0;1375
2023-07-05 19:00:00;15,7;100970;82;0,009;0,0;1,8;196;5,9;-0,49;-1,73;57;0;nan;23,9;24,8;26,2;26,6;18,8;18,8;18,5;18,3;-13,5;27,8;1377
2023-07-05 20:00:00;15,2;101060;86;0,0092;0,0;1,0;241;4,1;-0,91;-0,51;3;0;nan;23,8;24,8;26,1;26,6;18,4;18,7;18,5;18,3;-13,5;27,7;1379
2023-07-05 21:00:00;13,8;101130;92;0,009;0,63;1,0;265;4,3;-1,01;-0,08;0;0;nan;23,8;24,7;26,1;26,6;18,1;18,5;18,5;18,3;-13,5;27,6;1380
2023-07-05 22:00:00;13,3;101177;94;0,0089;0,04;0,6;192;1,5;-0,11;-0,53;0;0;nan;23,7;24,7;26,1;26,6;17,8;18,3;18,5;18,3;-13,5;27,6;1380
2023-07-05 23:00:00;12,8;101200;94;0,0086;0,03;0,9;170;2,4;0,15;-0,84;0;0;nan;23,7;24,6;26,0;26,6;17,4;18,2;18,4;18,3;-13,5;27,5;1381
2023-07-06 00:00:00;12,8;101220;94;0,0086;0,02;1,1;179;2,3;0,01;-1,07;0;0;nan;23,7;24,6;26,0;26,6;17,0;18,0;18,4;18,2;-13,5;27,8;1377
2023-07-06 01:00:00;12,6;101230;95;0,0085;0,06;0,8;189;2,3;-0,13;-0,82;0;0;nan;23,6;24,6;26,0;26,6;16,8;17,7;18,3;18,3;-13,5;27,8;1377
2023-07-06 02:00:00;11,7;101230;95;0,0081;0,02;0,4;185;1,1;-0,03;-0,38;0;0;nan;23,6;24,5;25,9;26,5;16,4;17,5;18,2;18,2;-13,5;27,7;1378
2023-07-06 03:00:00;11,3;101240;94;0,0078;0,03;0,5;203;2,1;-0,2;-0,47;7;0;nan;23,6;24,5;25,9;26,5;16,1;17,3;18,1;18,2;-13,5;27,4;1383
2023-07-06 04:00:00;12,2;101250;93;0,0081;0,0;1,4;181;3,3;-0,02;-1,42;29;0;nan;23,5;24,4;25,9;26,5;15,8;17,1;18,0;18,2;-13,5;27,0;1388
2023-07-06 05:00:00;12,9;101270;96;0,0088;0,0;1,5;190;4,0;-0,26;-1,43;107;0;nan;23,5;24,4;25,9;26,5;15,7;16,8;17,9;18,2;-13,5;27,0;1388
2023-07-06 06:00:00;14,0;101307;93;0,0092;0,0;1,8;198;4,2;-0,53;-1,68;218;0;nan;23,5;24,4;25,8;26,5;15,8;16,7;17,8;18,2;-13,5;26,7;1392
2023-07-06 07:00:00;15,5;101350;91;0,0099;0,0;1,6;207;4,6;-0,73;-1,46;383;0;nan;23,5;24,4;25,8;26,5;16,2;16,7;17,7;18,2;-13,5;26,4;1397
2023-07-06 08:00:00;16,9;101360;85;0,0101;0,0;1,9;194;6,1;-0,47;-1,87;486;0;nan;23,4;24,3;25,8;26,5;16,8;16,8;17,6;18,2;-13,5;26,3;1397
2023-07-06 09:00:00;18,3;101390;79;0,0102;0,0;1,9;221;6,0;-1,24;-1,42;628;0;nan;23,4;24,3;25,7;26,5;17,7;17,0;17,5;18,1;-13,5;26,3;1399
2023-07-06 10:00:00;19,6;101403;70;0,0099;0,0;1,8;224;5,4;-1,27;-1,3;683;0;nan;23,4;24,3;25,7;26,5;18,7;17,4;17,5;18,1;-13,5;26,0;1402
2023-07-06 11:00:00;19,9;101440;65;0,0093;0,0;1,5;243;6,4;-1,36;-0,7;463;0;nan;23,4;24,2;25,7;26,5;19,7;17,9;17,6;18,1;-13,6;26,4;1397
2023-07-06 12:00:00;nan;nan;nan;nan;0,0;nan;nan;nan;nan;nan;nan;0;nan;23,3;24,2;25,7;26,5;20,4;18,4;17,7;18,1;-13,6;26,0;1402
2023-07-06 13:00:00;20,4;101450;64;0,0094;0,0;1,4;282;4,6;-1,41;0,29;581;0;nan;23,3;24,2;25,7;26,5;21,2;18,9;17,9;18,0;-13,6;25,8;1405
2023-07-06 14:00:00;21,6;101440;57;0,009;0,0;1,4;242;4,8;-1,24;-0,66;616;0;nan;23,3;24,2;25,6;26,5;22,0;19,4;18,1;18,0;-13,6;25,6;1409
2023-07-06 15:00:00;21,8;101427;56;0,009;0,0;1,4;201;4,8;-0,47;-1,24;494;0;nan;23,2;24,1;25,6;26,5;22,4;19,9;18,3;18,0;-13,6;25,3;1413
2023-07-06 16:00:00;22,2;101400;53;0,0087;0,0;1,4;177;4,8;0,08;-1,44;383;0;nan;23,2;24,1;25,6;26,5;22,8;20,3;18,5;18,0;-13,6;25,4;1411
2023-07-06 17:00:00;22,6;101390;49;0,0083;0,0;1,2;207;4,2;-0,56;-1,11;319;0;nan;23,1;24,0;25,6;26,5;22,9;20,7;18,7;18,0;-13,7;24,9;1418
2023-07-06 18:00:00;22,2;101400;51;0,0084;0,0;0,9;207;2,7;-0,39;-0,77;179;0;nan;23,0;24,0;25,5;26,5;22,5;20,9;18,9;18,0;-13,6;24,5;1425
2023-07-06 19:00:00;20,5;101430;58;0,0086;0,0;0,4;301;0,8;-0,37;0,22;49;0;nan;23,0;24,0;25,5;26,5;22,0;20,9;19,1;18,0;-13,6;24,5;1425
2023-07-06 20:00:00;17,0;101490;74;0,0088;0,0;0,5;320;1,7;-0,32;0,38;4;0;nan;22,9;23,9;25,5;26,5;21,3;20,8;19,3;18,0;-13,7;24,4;1427
2023-07-06 21:00:00;14,0;101557;86;0,0085;0,0;0,4;304;0,7;-0,3;0,21;0;0;nan;22,9;23,9;25,5;26,5;20,5;20,5;19,3;18,0;-13,7;24,3;1428
2023-07-06 22:00:00;12,4;101600;91;0,008;0,0;0,3;305;0,8;-0,27;0,19;0;0;nan;22,8;23,8;25,5;26,5;19,8;20,2;19,4;18,1;-13,7;24,6;1424
2023-07-06 23:00:00;11,7;101620;93;0,0079;0,0;0,3;308;0,8;-0,24;0,19;0;0;nan;22,8;23,8;25,4;26,5;19,1;19,9;19,4;18,1;-13,7;24,4;1427
2023-07-07 00:00:00;10,9;101620;95;0,0076;0,0;0,4;308;0,8;-0,29;0,23;0;0;nan;22,7;23,8;25,4;26,5;18,5;19,5;19,3;18,1;-13,7;24,0;1433
2023-07-07 01:00:00;10,4;101600;96;0,0074;0,0;0,4;312;0,8;-0,3;0,27;0;0;nan;22,7;23,7;25,4;26,5;18,0;19,1;19,2;18,2;-13,7;23,9;1435
2023-07-07 02:00:00;10,1;101600;95;0,0072;0,02;0,3;314;0,6;-0,23;0,22;0;0;nan;22,7;23,7;25,3;26,5;17,5;18,8;19,1;18,2;-13,7;24,1;1432
2023-07-07 03:00:00;9,8;101610;96;0,0071;0,03;0,3;311;0,6;-0,23;0,2;8;0;nan;22,6;23,7;25,3;26,5;17,1;18,4;19,0;18,2;-13,7;23,7;1437
2023-07-07 04:00:00;10,9;101640;99;0,0079;0,02;0,3;284;0,7;-0,31;0,08;74;0;nan;22,6;23,6;25,3;26,5;16,7;18,1;18,8;18,2;-13,7;23,8;1436
2023-07-07 05:00:00;14,0;101660;100;0,0098;0,02;0,6;134;1,8;0,4;-0,39;175;0;nan;22,6;23,6;25,3;26,5;16,5;17,8;18,7;18,2;-13,7;23,8;1436
2023-07-07 06:00:00;17,0;101660;89;0,0106;0,0;1,0;96;2,2;1,01;-0,11;312;0;nan;22,5;23,6;25,2;26,5;16,6;17,6;18,5;18,2;-13,7;23,8;1436
2023-07-07 07:00:00;nan;nan;nan;nan;0,0;nan;nan;nan;nan;nan;nan;0;nan;22,5;23,5;25,2;26,5;17,1;17,5;18,4;18,2;-13,7;23,8;1436
2023-07-07 08:00:00;20,4;101660;74;0,0109;0,0;1,3;90;3,2;1,29;0,01;438;0;nan;22,5;23,5;25,2;26,5;18,0;17,6;18,3;18,3;-13,7;23,8;1436
2023-07-07 09:00:00;23,0;101690;61;0,0105;0,0;1,0;67;2,9;0,9;0,39;570;0;nan;22,5;23,5;25,2;26,5;19,1;17,9;18,2;18,3;-13,8;23,7;1437
2023-07-07 10:00:00;24,0;101680;54;0,0099;0,0;1,5;104;5,4;1,47;-0,37;692;0;nan;22,5;23,4;25,1;26,5;20,4;18,4;18,2;18,2;-13,7;23,6;1439
2023-07-07 11:00:00;24,8;101650;50;0,0096;0,0;1,3;209;7,5;-0,63;-1,14;769;0;nan;22,5;23,4;25,1;26,5;21,7;19,1;18,3;18,2;-13,8;23,2;1447
2023-07-07 12:00:00;25,4;101630;49;0,0098;0,0;1,6;109;5,2;1,54;-0,53;716;0;nan;22,4;23,4;25,1;26,5;23,0;19,8;18,4;18,2;-13,8;23,4;1443
2023-07-07 13:00:00;26,1;101590;48;0,01;0,0;1,4;108;3,8;1,36;-0,44;724;0;nan;22,4;23,4;25,1;26,5;24,2;20,6;18,7;18,2;-13,8;23,1;1448
2023-07-07 14:00:00;26,8;101553;44;0,0096;0,0;1,6;101;4,7;1,49;-0,3;685;0;nan;22,4;23,3;25,1;26,5;25,2;21,4;18,9;18,2;-13,8;23,0;1449
2023-07-07 15:00:00;27,4;101510;42;0,0094;0,0;1,7;84;5,4;1,69;0,18;538;0;nan;22,3;23,3;25,0;26,5;25,8;22,1;19,3;18,2;-13,8;23,1;1448
2023-07-07 16:00:00;27,6;101470;42;0,0095;0,0;1,4;65;4,2;1,26;0,58;384;0;nan;22,3;23,3;25,0;26,5;26,1;22,7;19,6;18,2;-13,9;22,8;1453
2023-07-07 17:00:00;27,4;101440;43;0,0097;0,0;1,7;60;4,2;1,48;0,86;274;0;nan;22,2;23,3;25,0;26,5;26,0;23,1;19,9;18,2;-13,9;22,9;1452
2023-07-07 18:00:00;26,7;101420;44;0,0095;0,0;1,5;68;5,7;1,36;0,55;159;0;nan;22,2;23,2;25,0;26,5;25,4;23,3;20,2;18,2;-13,9;22,8;1453
2023-07-07 19:00:00;24,8;101430;51;0,0098;0,0;0,4;42;1,8;0,3;0,33;49;0;nan;22,1;23,2;25,0;26,5;24,7;23,2;20,5;18,2;-13,9;22,7;1454
2023-07-07 20:00:00;21,8;101430;57;0,0092;0,0;0,5;79;1,6;0,5;0,1;2;0;nan;22,1;23,1;24,9;26,5;23,8;23,0;20,6;18,3;-13,9;22,7;1455
2023-07-07 21:00:00;20,8;101440;59;0,0089;0,0;0,9;71;2,9;0,81;0,28;0;0;nan;22,0;23,1;24,9;26,5;23,0;22,7;20,7;18,3;-13,9;22,6;1457
2023-07-07 22:00:00;20,1;101460;61;0,0088;0,0;1,1;94;2,9;1,08;-0,07;0;0;nan;22,0;23,1;24,9;26,4;22,2;22,3;20,8;18,4;-13,9;22,2;1464
2023-07-07 23:00:00;19,5;101450;63;0,0088;0,0;1,3;85;3,4;1,29;0,11;0;0;nan;21,9;23,0;24,9;26,4;21,6;21,9;20,8;18,4;-13,9;22,0;1466
2023-07-08 00:00:00;18,7;101420;66;0,0088;0,0;1,2;78;2,9;1,16;0,25;0;0;nan;21,9;23,0;24,8;26,4;21,0;21,5;20,7;18,5;-13,9;22,1;1465
2023-07-08 01:00:00;18,4;101390;68;0,0089;0,0;1,2;75;2,9;1,15;0,3;0;0;nan;21,9;23,0;24,8;26,4;20,5;21,2;20,6;18,5;-14,0;22,2;1464
2023-07-08 02:00:00;18,1;101350;69;0,0088;0,0;1,0;77;3,2;1,02;0,23;0;0;nan;21,8;22,9;24,8;26,4;20,2;20,8;20,5;18,6;-14,0;21,9;1469
2023-07-08 03:00:00;16,9;101320;74;0,0088;0,0;1,0;90;3,5;0,97;0,0;3;0;nan;21,8;22,9;24,8;26,4;19,8;20,5;20,4;18,6;-14,0;21,9;1469